STARLINK-36589, 67843

Orbit data source: Space-Track

STARLINK-36589, 67843 is a payload satellite owned by SpaceX/Seattle (US) in LEO that was launched on Mon, 16 Feb 2026 UTC via an FALCON 9 launch vehicle from the Air Force Eastern Test Range (AFETR). Payload-class satellites include a variety of spacecraft equipped with specific instruments for various scientific and technological missions. These include communications satellites like Starlink; space stations such as the ISS; scientific satellites like the Hubble; Earth observation satellites from companies like Planet Labs, Umbra, and HawkEye 360; GPS; miniature CubeSats for education and research; and military/defense satellites.

Loading next visibility...
Identifier
67843, 2026-033Y
Orbit
LEO
Country
Flag of USUS
Related business
Manufacturer
SpaceX/Seattle
Mission
Operational Commercial Communications
Bus & Motor
STARLINK V2MO, Unknown motor
Mass
575 kg wet, ~530 kg dry
Launch date (UTC)
2026-02-16 (4 months ago)
Launch vehicle
FALCON 9
Launch site
Air Force Eastern Test Range (AFETR)
Object type
Payload
Rocket body
Debris
Shape & HBR
Box + 2 Pan, 17.7 m
Radar Cross Section
36.964 m², Large (>1 m²)

Expand to show TLE details & history
Last TLE update: 22 hours ago

TLE from 22 hours ago
0 STARLINK-36589
1 67843U 26033Y   26171.06629972  .00014007  00000-0  51732-3 0  9993
2 67843  43.0025  48.6657 0001390 268.6935  91.3757 15.27594154 20335
Epoch: 2026-06-20T01:35Z
TLE epoch observation values (Epoch: 2026-06-20T01:35:28.295Z)
Latitude
-0.00006°
Longitude
116.51148°
Altitude
482.805 km
Speed
7.626 km/s
True Right ascension
03h 14m 39s
True Declination
0° 00' 00"
Sunlit
Object was in daylight at epoch
Visualization orbit readout
Latitude
Unknown
Longitude
Unknown
Altitude
Unknown
Speed
Unknown
Apparent Right ascension
Unknown
Apparent Declination
Unknown
Sunlit
N/A
Visualization observer readout
Local Sidereal Time
10:18:50
Azimuth
Unknown
Elevation
Unknown
Doppler factor
Unknown
Orbital elements
Apogee altitude
485.905 km
Perigee altitude
483.998 km
Semi-major axis
6,863.088 km
Eccentricity
0.00014
Inclination
43.0025°
RAAN
48.6657°
Arg. of periapsis
268.6935°
True anomaly
91.39162°
Mean anomaly
91.3757°
Eccentric anomaly
91.38366°
Mean motion
3.81737 °/min
Orbital period
94.31 mins
BSTAR
0.00051732
Loading maneuver chart data...
Computing Atmospheric mass density...
Loading historical data...
Loading historical data...
Loading historical data...
Loading historical data...
Loading historical data...
Loading historical data...
Loading historical data...

Documentation

Showing up to 5 results
|